Tracking 20037 objects as of 17-Nov-2019
Live streaming from Space Station
objects crossing your sky now

COSMOS 1375 DEB

Track COSMOS 1375 DEB now!
10-day predictions


NORAD ID: 16209
Int'l Code: 1982-055L
Perigee: 995.0 km
Apogee: 1,009.2 km
Inclination: 65.8 °
Period: 105.0 minutes
Semi major axis: 7373 km
RCS: 0.5415 m2 (medium)
Launch date: June 6, 1982
Source: Commonwealth of Independent States (former USSR) (CIS)
Launch site: PLESETSK MISSILE AND SPACE COMPLEX (PKMTR)

Note: This is SATELLITE DEBRIS
aabbcc
Your satellite tracking list
Your tracking list is empty




NASA's NSSDC Master Catalog

Two Line Element Set (TLE):
1 16209U 82055L   19320.71753608 -.00000061 +00000-0 +21339-4 0  9990
2 16209 065.8372 055.2761 0009589 130.7473 024.9320 13.71290129710714
Source of the keplerian elements: AFSPC